Regional Weather Roundup
Issued by NWS

Home | Current Version | Previous Version | Text Only | Print | Product List | Glossary Off
Versions: 1 2 3 4 5 6 7 8 9 10 11 12 13 14 15 16 17 18 19 20 21 22 23 24 25 26 27 28 29 30 31 32 33 34 35 36 37 38 39 40 41 42 43 44 45 46 47 48 49 50

000
ASUS45 KABQ 190910
RWRNM
NEW MEXICO REGIONAL WEATHER ROUNDUP
NATIONAL WEATHER SERVICE ALBUQUERQUE NM
300 AM MDT THU OCT 19 2017

NOTE: "FAIR" MEANS FEW OR NO CLOUDS BELOW 12,000 FEET AGL WITH NO
       SIGNIFICANT WEATHER OR OBSTRUCTIONS TO VISION.

      THIS PRODUCT IS RELEASED AS TWO VERSIONS.  ONE VERSION NEAR
      THE TOP OF THE HOUR CONTAINING PRELIMINARY DATA FROM ALBUQUERQUE
      AND OTHER STATIONS.  A FINAL VERSION WITH ADDITIONAL DATA IS
      ISSUED ABOUT 10 MINUTES AFTER THE HOUR.

NMZ501-503-504-510>518-191000-
NORTHWEST PLATEAU/NORTHCENTRAL MOUNTAINS

CITY           SKY/WX    TMP DP  RH WIND       PRES   REMARKS
FARMINGTON     FAIR      44  24  45 E7        30.14F
LOS ALAMOS     FAIR      55  17  22 SW5       30.24F
SANTA FE       FAIR      45  26  47 N8        30.19F
TAOS           FAIR      34  16  47 VRB6      30.27  WCI  29
ANGEL FIRE     FAIR      23  19  87 CALM      30.35F

$$
NMZ402-403-502-505>509-191000-
WESTCENTRAL MOUNTAINS/SOUTHWEST MOUNTAINS

CITY           SKY/WX    TMP DP  RH WIND       PRES   REMARKS
GALLUP         FAIR      42  22  44 NE3       30.19F
GRANTS         FAIR      40  25  53 NW7       30.22F
SILVER CITY    FAIR      50  44  78 N8        30.15F

$$
NMZ407-409-411-412-191000-
SOUTHERN DESERTS

CITY           SKY/WX    TMP DP  RH WIND       PRES   REMARKS
DEMING         FAIR      56  47  71 NW6       30.09F
LAS CRUCES     FAIR      62  49  63 SW5       30.11F
HOLLOMAN AFB   FAIR      65  48  53 SE9       30.10S
ALAMOGORDO     FAIR      64  46  52 S8        30.10F
T OR C         FAIR      61  43  51 W6        30.10F

$$
NMZ519>523-191000-
CENTRAL VALLEYS/CENTRAL HIGHLANDS

CITY           SKY/WX    TMP DP  RH WIND       PRES   REMARKS
ALBUQUERQUE    CLOUDY    56  24  29 N12       30.14S
MORIARTY ARPT  FAIR      37  32  82 N7        30.20F WCI  31
CLINES CORNERS FAIR      50  21  32 SW6       30.23S
BELEN          FAIR      49  31  51 CALM      30.12F
SOCORRO        FAIR      54  36  50 S5        30.11S

$$
NMZ524>526-539-540-191000-
SOUTHCENTRAL MOUNTAINS

CITY           SKY/WX    TMP DP  RH WIND       PRES   REMARKS
RUIDOSO        FAIR      54  36  50 MISG      30.23F

$$
NMZ527>531-191000-
NORTHEAST HIGHLANDS/NORTHEAST PLAINS

CITY           SKY/WX    TMP DP  RH WIND       PRES   REMARKS
LAS VEGAS      FAIR      41  26  55 NE8       30.23S
RATON          FAIR      39  26  59 E9        30.20F WCI  33
CLAYTON        FAIR      47  41  80 W9        30.11F

$$
NMZ532>537-191000-
EASTCENTRAL PLAINS

CITY           SKY/WX    TMP DP  RH WIND       PRES   REMARKS
SANTA ROSA     FAIR      49  33  54 NW3       30.10F
CANNON AFB     CLEAR     53  50  88 CALM      30.09R
CLOVIS AIRPORT FAIR      51  45  79 S3        30.08F

$$
NMZ028-029-538-191000-
SOUTHEAST PLAINS

CITY           SKY/WX    TMP DP  RH WIND       PRES   REMARKS
ROSWELL        FAIR      58  45  62 W10       30.03F
ARTESIA        FAIR      55  48  76 SW5       30.04F
CARLSBAD       MOCLDY    54  49  83 S3        30.02F
HOBBS          FAIR      52  46  82 W3        30.06F


$$




USA.gov is the U.S. government's official web portal to all federal, state and local government web resources and services.